Regional Weather Roundup
Issued by NWS

Home | Current Version | Previous Version | Graphics & Text | Print | Product List | Glossary On
Versions: 1 2 3 4 5 6 7 8 9 10 11 12 13 14 15 16 17 18 19 20 21 22 23 24 25 26 27
000
ASUS45 KBOU 031507
RWRCO

WEATHER ROUNDUP FOR COLORADO
NATIONAL WEATHER SERVICE DENVER/BOULDER CO
800 AM MST SAT DEC 03 2016

NOTE: "FAIR" INDICATES FEW OR NO CLOUDS BELOW 12000 FEET WITH NO
SIGNIFICANT WEATHER AND/OR OBSTRUCTIONS TO VISIBILITY.

COZ001>005-013-030-031-031600-
...NORTHWEST COLORADO...

CITY           SKY/WX    TMP DP  RH WIND       PRES   REMARKS
CRAIG          CLOUDY    13   7  77 CALM      30.18R
HAYDEN         CLOUDY    10   3  72 E10       30.16R WCI  -3
MEEKER         FAIR       5   1  83 CALM      30.19S
MOUNT WERNER   NOT AVBL
STEAMBOAT SPGS MOCLDY    10   8  89 CALM      30.16S
WALDEN           N/A     12   3  67 S14G21    30.06R WCI  -3
$$

COZ006>008-011-031600-
...WEST CENTRAL VALLEYS...

CITY           SKY/WX    TMP DP  RH WIND       PRES   REMARKS
GRAND JUNCTION FAIR      19  16  88 CALM      30.22R
MONTROSE       CLOUDY    26  20  77 SE7       30.22S WCI  18
EAGLE          PTCLDY    16  12  86 CALM      30.20R
RIFLE          CLOUDY    20  13  74 W6        30.23R WCI  12
DELTA          MOCLDY    29  22  74 CALM      30.23S
NUCLA          FAIR      18  14  86 SE6       30.22S WCI   9
$$

COZ017>023-064>068-031600-
...SOUTHWEST COLORADO...

CITY           SKY/WX    TMP DP  RH WIND       PRES   REMARKS
DURANGO        FAIR      20  17  88 CALM      30.12R
CORTEZ         FAIR      18  16  92 MISG      30.15R
PAGOSA SPRINGS FAIR     N/A N/A N/A CALM      30.11R
TELLURIDE      FAIR      13  11  92 SE7       30.12S WCI   2
WOLF CREEK PAS FAIR      12  10  92 W7        30.11R WCI   2
$$

COZ009-010-012-014-032>034-037-058>063-031600-
...CENTRAL COLORADO...

CITY           SKY/WX    TMP DP  RH WIND       PRES   REMARKS
ASPEN          FAIR      11   8  88 SW6       30.12F WCI   1
BUENA VISTA    NOT AVBL
COPPER MTN     NOT AVBL
BERTHOUD PASS  CLOUDY     0 -13  55 N21G44    29.92R WCI -23
COTTONWOOD PAS FAIR      21  16  79 NW8G17    29.98F WCI  12
GUNNISON       FLURRIES  18  15  88 SW5       30.15S WCI  11
KREMMLING      FLURRIES  14   9  79 CALM      30.17R
LEADVILLE      FAIR      11   4  73 N9        30.02S WCI  -2
MONARCH PASS   CLOUDY     7   3  85 W41G47    30.03F WCI -20
SALIDA         FAIR      12   8  83 N10       30.13F WCI  -1
SUNLIGHT       FAIR     N/A N/A N/A SW6       30.10R
WILKERSON PASS FAIR     N/A N/A N/A W10G20    29.95R
$$

COZ069>075-031600-
...SAN LUIS VALLEY/SANGRE DE CRISTO MOUNTAINS...

CITY           SKY/WX    TMP DP  RH WIND       PRES   REMARKS
ALAMOSA        CLOUDY    21  19  92 CALM      30.12R
LA VETA PASS   LGT SNOW  16  12  86 MISG      30.01R VSB 3/4
SAGUACHE       FAIR      16  10  79 NW10      30.10F WCI   3
$$

COZ035-036-038>040-031600-
...NORTHERN COLORADO FRONT RANGE...

CITY           SKY/WX    TMP DP  RH WIND       PRES   REMARKS
DENVER INTL AP FAIR      20  17  88 SW6       30.00S FOG     WCI  12
DMNS CITY PARK   N/A     21  15  78 SE7       30.00F WCI  12
AURORA         PTCLDY    17  14  85 S3        30.00S
FRONT RANGE AP PTCLDY    21  19  93 S5        30.01  WCI  15
ERIE MUNI ARPT CLOUDY    21  19  92 CALM      30.01F
BOULDER MUN AP FAIR      23  19  86 CALM      30.00F
CENTENNIAL     FAIR      21  16  81 S6        29.99S WCI  13
BROOMFIELD     MOCLDY    21  19  93 CALM      30.00
FORT COLLINS   FAIR      18  10  73 CALM      30.03R
LONGMONT       MOCLDY    21  17  83 NW3       30.04R
$$

COZ041-046-047-076>085-087-088-031600-
...PIKES PEAK/PALMER DIVIDE AND SOUTHERN FOOTHILLS...

CITY           SKY/WX    TMP DP  RH WIND       PRES   REMARKS
COLO. SPRINGS  FAIR      20  17  88 NE6       30.01F FOG     WCI  12
A. F. ACADEMY  CLOUDY    20  18  92 NE7       29.99F WCI  11
SCHRIEVER AFB  NOT AVBL
ELLICOTT       FAIR     N/A N/A N/A CALM      30.00F
FALCON         FAIR      19  18  96 CALM      30.00F
FORT CARSON    FAIR      19  15  84 N6        30.00F WCI  11
LIMON          FAIR      23  19  85 S7        30.04F WCI  15
MONUMENT HILL  FAIR      21  14  73 SW9       29.97F WCI  11
TRINIDAD       FAIR      21  17  84 W5        30.05F WCI  15
$$

COZ042>045-048>051-090-091-031600-
...NORTHEAST COLORADO...

CITY           SKY/WX    TMP DP  RH WIND       PRES   REMARKS
GREELEY ARPT   FAIR      14  10  84 N5        30.05S WCI   6
AKRON          FAIR      22  16  78 S9        30.03S WCI  12
BURLINGTON     FAIR      24  17  74 SW9       30.09S WCI  14
WRAY           FAIR      25  21  86 SW6       30.10S WCI  18
STERLING       FAIR      18  14  86 W3        30.05R
HOLYOKE        FAIR      25  21  86 S7        30.08F WCI  17
FORT MORGAN    FAIR      14  12  90 W7        30.04S WCI   4
$$

COZ086-089-092>099-031600-
...SOUTHEAST COLORADO...

CITY           SKY/WX    TMP DP  RH WIND       PRES   REMARKS
PUEBLO         FAIR      24  18  77 W3        30.06F
LA JUNTA       FAIR      22  18  85 NW6       30.09S WCI  14
LAMAR          FAIR      25  20  81 SE3       30.09F
SPRINGFIELD      N/A     30  27  88 S7        30.10R WCI  23
$$




USA.gov is the U.S. government's official web portal to all federal, state and local government web resources and services.